N2308E KGTF-KGTF

Flight info

Callsign N2308E
Flight time 1h 15m
Altitude 9000
Route HOXEK
Aircraft C172/L-VGD/C

Departure

Time 2026-04-15 01:21
Airport Great Falls International Airport (KGTF)

Arrival

Time 2026-04-15 02:37
Airport Great Falls International Airport (KGTF)
Time Latitude Longitude Altitude Speed Heading
2026-04-15 01:02 47.48796 -111.35261 3643 ft 0 kts 224°
2026-04-15 01:16 47.48795 -111.35261 3643 ft 0 kts 224°
2026-04-15 01:16 47.48795 -111.35287 3645 ft 4 kts 316°
2026-04-15 01:17 47.48838 -111.35299 3646 ft 9 kts
2026-04-15 01:17 47.48903 -111.35299 3645 ft 0 kts 307°
2026-04-15 01:19 47.48913 -111.35315 3646 ft 6 kts 314°
2026-04-15 01:20 47.48937 -111.35410 3648 ft 14 kts 255°
2026-04-15 01:20 47.48810 -111.35616 3658 ft 50 kts 225°
2026-04-15 01:20 47.48482 -111.36106 3741 ft 74 kts 225°
2026-04-15 01:20 47.48107 -111.36665 3924 ft 77 kts 225°
2026-04-15 01:21 47.47723 -111.37212 4122 ft 77 kts 223°
2026-04-15 01:21 47.47349 -111.37764 4313 ft 78 kts 225°
2026-04-15 01:21 47.46949 -111.38345 4495 ft 80 kts 223°
2026-04-15 01:21 47.46556 -111.38929 4672 ft 82 kts 226°
2026-04-15 01:22 47.46149 -111.39559 4829 ft 87 kts 225°
2026-04-15 01:22 47.45724 -111.40159 5048 ft 83 kts 224°
2026-04-15 01:22 47.45320 -111.40801 5222 ft 85 kts 227°
2026-04-15 01:22 47.44913 -111.41429 5403 ft 86 kts 225°
2026-04-15 01:23 47.44485 -111.42036 5589 ft 85 kts 223°
2026-04-15 01:23 47.44124 -111.42733 5738 ft 89 kts 252°
2026-04-15 01:23 47.43928 -111.43581 5966 ft 83 kts 250°
2026-04-15 01:23 47.43745 -111.44418 6095 ft 88 kts 253°
2026-04-15 01:24 47.43564 -111.45258 6295 ft 85 kts 251°
2026-04-15 01:24 47.43351 -111.46094 6447 ft 87 kts 251°
2026-04-15 01:24 47.43157 -111.46934 6617 ft 87 kts 251°
2026-04-15 01:24 47.42962 -111.47783 6786 ft 86 kts 251°
2026-04-15 01:25 47.42771 -111.48640 6924 ft 90 kts 252°
2026-04-15 01:25 47.42593 -111.49504 7092 ft 88 kts 253°
2026-04-15 01:25 47.42404 -111.50391 7246 ft 89 kts 252°
2026-04-15 01:25 47.42203 -111.51249 7393 ft 90 kts 251°
2026-04-15 01:26 47.42004 -111.52148 7368 ft 94 kts 253°
2026-04-15 01:26 47.41813 -111.53090 7306 ft 94 kts 253°
2026-04-15 01:26 47.41611 -111.54009 7216 ft 97 kts 252°
2026-04-15 01:26 47.41406 -111.54971 7119 ft 96 kts 253°
2026-04-15 01:27 47.41233 -111.55909 7016 ft 96 kts 257°
2026-04-15 01:27 47.41062 -111.56877 6907 ft 96 kts 254°
2026-04-15 01:27 47.40869 -111.57808 6790 ft 96 kts 248°
2026-04-15 01:27 47.40490 -111.58631 6667 ft 97 kts 223°
2026-04-15 01:28 47.40005 -111.59298 6573 ft 94 kts 224°
2026-04-15 01:28 47.39545 -111.60013 6442 ft 96 kts 229°
2026-04-15 01:28 47.39129 -111.60764 6336 ft 95 kts 233°
2026-04-15 01:28 47.38615 -111.61376 6182 ft 98 kts 201°
2026-04-15 01:29 47.37944 -111.61364 6096 ft 97 kts 156°
2026-04-15 01:29 47.37456 -111.60703 6062 ft 96 kts 132°
2026-04-15 01:29 47.37001 -111.59992 6035 ft 95 kts 135°
2026-04-15 01:29 47.36539 -111.59274 6010 ft 95 kts 134°
2026-04-15 01:30 47.36111 -111.58536 6023 ft 93 kts 125°
2026-04-15 01:30 47.35933 -111.57633 6011 ft 95 kts 89°
2026-04-15 01:30 47.36058 -111.56683 6003 ft 96 kts 73°
2026-04-15 01:30 47.36242 -111.55730 6013 ft 95 kts 75°
2026-04-15 01:31 47.36411 -111.54791 6020 ft 94 kts 76°
2026-04-15 01:31 47.36576 -111.53847 6010 ft 94 kts 75°
2026-04-15 01:31 47.36907 -111.53036 6023 ft 93 kts 39°
2026-04-15 01:31 47.37429 -111.52447 6020 ft 95 kts 37°
2026-04-15 01:32 47.37902 -111.51801 6053 ft 88 kts 48°
2026-04-15 01:32 47.38302 -111.51162 6077 ft 82 kts 47°
2026-04-15 01:32 47.38707 -111.50553 6081 ft 83 kts 44°
2026-04-15 01:32 47.39143 -111.50002 6087 ft 83 kts 39°
2026-04-15 01:33 47.39564 -111.49402 6089 ft 83 kts 48°
2026-04-15 01:33 47.39925 -111.48751 6065 ft 79 kts 52°
2026-04-15 01:33 47.40308 -111.48118 5876 ft 84 kts 47°
2026-04-15 01:33 47.40695 -111.47484 5742 ft 83 kts 50°
2026-04-15 01:34 47.41088 -111.46877 5533 ft 81 kts 46°
2026-04-15 01:34 47.41484 -111.46305 5307 ft 80 kts 44°
2026-04-15 01:34 47.41895 -111.45731 5169 ft 82 kts 44°
2026-04-15 01:34 47.42313 -111.45148 5043 ft 82 kts 44°
2026-04-15 01:35 47.42710 -111.44550 4928 ft 81 kts 45°
2026-04-15 01:35 47.43132 -111.43982 4799 ft 82 kts 43°
2026-04-15 01:35 47.43548 -111.43411 4667 ft 82 kts 43°
2026-04-15 01:35 47.43955 -111.42834 4557 ft 81 kts 46°
2026-04-15 01:36 47.44344 -111.42218 4449 ft 81 kts 49°
2026-04-15 01:36 47.44713 -111.41594 4339 ft 81 kts 47°
2026-04-15 01:36 47.45118 -111.41013 4236 ft 80 kts 42°
2026-04-15 01:36 47.45547 -111.40471 4116 ft 81 kts 40°
2026-04-15 01:37 47.45943 -111.39880 4000 ft 81 kts 47°
2026-04-15 01:37 47.46324 -111.39273 3988 ft 79 kts 46°
2026-04-15 01:37 47.46686 -111.38723 4179 ft 74 kts 45°
2026-04-15 01:37 47.47052 -111.38174 4334 ft 74 kts 44°
2026-04-15 01:38 47.47413 -111.37634 4477 ft 75 kts 45°
2026-04-15 01:38 47.47794 -111.37105 4627 ft 75 kts 44°
2026-04-15 01:38 47.48146 -111.36525 4775 ft 75 kts 47°
2026-04-15 01:38 47.48517 -111.35991 4911 ft 76 kts 44°
2026-04-15 01:39 47.48888 -111.35441 5055 ft 75 kts 45°
2026-04-15 01:39 47.49237 -111.34854 5178 ft 78 kts 64°
2026-04-15 01:39 47.49221 -111.34084 5298 ft 79 kts 119°
2026-04-15 01:39 47.48755 -111.33699 5413 ft 79 kts 180°
2026-04-15 01:40 47.48285 -111.34051 5541 ft 79 kts 230°
2026-04-15 01:40 47.47973 -111.34687 5690 ft 77 kts 233°
2026-04-15 01:40 47.47649 -111.35322 5816 ft 77 kts 234°
2026-04-15 01:40 47.47344 -111.35982 5939 ft 78 kts 233°
2026-04-15 01:41 47.46994 -111.36578 6066 ft 77 kts 230°
2026-04-15 01:41 47.46705 -111.37261 6157 ft 82 kts 240°
2026-04-15 01:41 47.46419 -111.38017 6180 ft 83 kts 239°
2026-04-15 01:41 47.46132 -111.38738 6114 ft 82 kts 239°
2026-04-15 01:42 47.45813 -111.39448 6060 ft 83 kts 236°
2026-04-15 01:42 47.45483 -111.40161 6102 ft 83 kts 235°
2026-04-15 01:42 47.45146 -111.40854 6098 ft 83 kts 227°
2026-04-15 01:42 47.44733 -111.41473 6098 ft 83 kts 228°
2026-04-15 01:43 47.44355 -111.42111 6089 ft 84 kts 228°
2026-04-15 01:43 47.43960 -111.42745 6088 ft 83 kts 224°
2026-04-15 01:43 47.43528 -111.43327 6071 ft 83 kts 223°
2026-04-15 01:43 47.43116 -111.43941 6077 ft 86 kts 227°
2026-04-15 01:44 47.42706 -111.44621 6097 ft 92 kts 227°
2026-04-15 01:44 47.42246 -111.45307 6134 ft 94 kts 221°
2026-04-15 01:44 47.41773 -111.45979 6155 ft 96 kts 226°
2026-04-15 01:44 47.41303 -111.46702 6171 ft 96 kts 227°
2026-04-15 01:45 47.40839 -111.47424 6152 ft 97 kts 226°
2026-04-15 01:45 47.40344 -111.48100 6136 ft 96 kts 220°
2026-04-15 01:45 47.39834 -111.48753 6091 ft 97 kts 221°
2026-04-15 01:45 47.39334 -111.49413 6062 ft 96 kts 222°
2026-04-15 01:46 47.38848 -111.50099 6068 ft 94 kts 227°
2026-04-15 01:46 47.38414 -111.50836 6078 ft 95 kts 229°
2026-04-15 01:46 47.37962 -111.51527 6103 ft 94 kts 224°
2026-04-15 01:46 47.37483 -111.52194 6103 ft 94 kts 223°
2026-04-15 01:47 47.36997 -111.52836 6113 ft 94 kts 221°
2026-04-15 01:47 47.36498 -111.53479 6111 ft 95 kts 225°
2026-04-15 01:47 47.36055 -111.54195 6116 ft 94 kts 229°
2026-04-15 01:47 47.35621 -111.54913 6115 ft 94 kts 227°
2026-04-15 01:48 47.35161 -111.55616 6118 ft 94 kts 225°
2026-04-15 01:48 47.34704 -111.56317 6112 ft 94 kts 227°
2026-04-15 01:48 47.34257 -111.57021 6112 ft 94 kts 226°
2026-04-15 01:48 47.33783 -111.57691 6107 ft 94 kts 224°
2026-04-15 01:49 47.33305 -111.58369 6107 ft 94 kts 224°
2026-04-15 01:49 47.32834 -111.59045 6104 ft 94 kts 224°
2026-04-15 01:49 47.32352 -111.59697 6101 ft 94 kts 223°
2026-04-15 01:49 47.31885 -111.60385 6099 ft 94 kts 227°
2026-04-15 01:50 47.31439 -111.61103 6098 ft 94 kts 226°
2026-04-15 01:50 47.30980 -111.61785 6095 ft 94 kts 224°
2026-04-15 01:50 47.30504 -111.62463 6094 ft 94 kts 225°
2026-04-15 01:50 47.30058 -111.63175 6091 ft 94 kts 227°
2026-04-15 01:51 47.29597 -111.63862 6090 ft 94 kts 223°
2026-04-15 01:51 47.29107 -111.64500 6087 ft 94 kts 223°
2026-04-15 01:51 47.28624 -111.65169 6086 ft 94 kts 222°
2026-04-15 01:51 47.28130 -111.65803 6083 ft 94 kts 219°
2026-04-15 01:52 47.27638 -111.66435 6080 ft 94 kts 224°
2026-04-15 01:52 47.27176 -111.67136 6082 ft 94 kts 225°
2026-04-15 01:52 47.26694 -111.67780 6077 ft 94 kts 219°
2026-04-15 01:52 47.26287 -111.68512 6089 ft 92 kts 252°
2026-04-15 01:53 47.26417 -111.69402 6108 ft 92 kts 308°
2026-04-15 01:53 47.26969 -111.69866 6090 ft 94 kts 352°
2026-04-15 01:53 47.27547 -111.69533 6138 ft 90 kts 49°
2026-04-15 01:53 47.27810 -111.68666 6114 ft 94 kts 70°
2026-04-15 01:54 47.28047 -111.67774 6097 ft 95 kts 64°
2026-04-15 01:54 47.28329 -111.66904 6111 ft 87 kts 64°
2026-04-15 01:54 47.28581 -111.66110 6106 ft 86 kts 64°
2026-04-15 01:54 47.28836 -111.65340 6113 ft 83 kts 60°
2026-04-15 01:55 47.29142 -111.64616 6105 ft 83 kts 55°
2026-04-15 01:55 47.29494 -111.63935 6095 ft 83 kts 51°
2026-04-15 01:55 47.29908 -111.63335 6096 ft 82 kts 40°
2026-04-15 01:55 47.30344 -111.62793 6091 ft 82 kts 43°
2026-04-15 01:56 47.30767 -111.62219 6087 ft 82 kts 40°
2026-04-15 01:56 47.31213 -111.61675 6082 ft 83 kts 44°
2026-04-15 01:56 47.31621 -111.61087 6084 ft 82 kts 45°
2026-04-15 01:56 47.31993 -111.60448 6078 ft 82 kts 48°
2026-04-15 01:57 47.32416 -111.59872 6073 ft 83 kts 33°
2026-04-15 01:57 47.32853 -111.59330 6064 ft 83 kts 48°
2026-04-15 01:57 47.33234 -111.58692 6070 ft 82 kts 47°
2026-04-15 01:57 47.33621 -111.58073 6065 ft 82 kts 49°
2026-04-15 01:58 47.33984 -111.57422 6065 ft 82 kts 50°
2026-04-15 01:58 47.34382 -111.56808 6063 ft 82 kts 43°
2026-04-15 01:58 47.34785 -111.56214 6056 ft 83 kts 48°
2026-04-15 01:58 47.35180 -111.55589 6059 ft 82 kts 44°
2026-04-15 01:59 47.35611 -111.55029 6057 ft 82 kts 38°
2026-04-15 01:59 47.36039 -111.54482 6056 ft 82 kts 44°
2026-04-15 01:59 47.36444 -111.53884 6056 ft 82 kts 44°
2026-04-15 01:59 47.36834 -111.53254 6053 ft 82 kts 50°
2026-04-15 02:00 47.37210 -111.52622 6053 ft 82 kts 45°
2026-04-15 02:00 47.37610 -111.52016 6052 ft 82 kts 45°
2026-04-15 02:00 47.38020 -111.51430 6052 ft 82 kts 43°
2026-04-15 02:00 47.38432 -111.50832 6052 ft 82 kts 45°
2026-04-15 02:01 47.38829 -111.50258 6003 ft 77 kts 43°
2026-04-15 02:01 47.39232 -111.49711 5872 ft 80 kts 40°
2026-04-15 02:01 47.39639 -111.49159 5790 ft 79 kts 44°
2026-04-15 02:01 47.40034 -111.48566 5678 ft 80 kts 44°
2026-04-15 02:02 47.40423 -111.47985 5571 ft 80 kts 44°
2026-04-15 02:02 47.40812 -111.47405 5457 ft 80 kts 46°
2026-04-15 02:02 47.41185 -111.46798 5342 ft 80 kts 47°
2026-04-15 02:02 47.41571 -111.46214 5232 ft 79 kts 43°
2026-04-15 02:03 47.41972 -111.45637 5116 ft 80 kts 44°
2026-04-15 02:03 47.42368 -111.45055 4994 ft 80 kts 45°
2026-04-15 02:03 47.42760 -111.44487 4879 ft 80 kts 44°
2026-04-15 02:03 47.43170 -111.43909 4757 ft 81 kts 43°
2026-04-15 02:04 47.43562 -111.43327 4651 ft 80 kts 45°
2026-04-15 02:04 47.43959 -111.42741 4539 ft 80 kts 44°
2026-04-15 02:04 47.44349 -111.42155 4438 ft 80 kts 46°
2026-04-15 02:04 47.44751 -111.41585 4338 ft 80 kts 41°
2026-04-15 02:05 47.45148 -111.41018 4223 ft 80 kts 44°
2026-04-15 02:05 47.45542 -111.40436 4113 ft 79 kts 45°
2026-04-15 02:05 47.45928 -111.39850 4000 ft 79 kts 45°
2026-04-15 02:05 47.46315 -111.39259 3890 ft 79 kts 44°
2026-04-15 02:06 47.46698 -111.38704 3948 ft 72 kts 43°
2026-04-15 02:06 47.47089 -111.38112 4014 ft 89 kts 43°
2026-04-15 02:06 47.47545 -111.37521 4235 ft 87 kts 43°
2026-04-15 02:06 47.47941 -111.36865 4455 ft 84 kts 54°
2026-04-15 02:07 47.48340 -111.36211 4659 ft 84 kts 37°
2026-04-15 02:07 47.48776 -111.35641 4842 ft 86 kts 45°
2026-04-15 02:07 47.49171 -111.34993 5035 ft 87 kts 50°
2026-04-15 02:07 47.49464 -111.34215 5218 ft 88 kts 86°
2026-04-15 02:08 47.49218 -111.33416 5374 ft 91 kts 140°
2026-04-15 02:08 47.48636 -111.33174 5564 ft 89 kts 180°
2026-04-15 02:08 47.48077 -111.32887 5758 ft 88 kts 138°
2026-04-15 02:08 47.47747 -111.32109 5954 ft 85 kts 114°
2026-04-15 02:09 47.47513 -111.31298 6107 ft 89 kts 114°
2026-04-15 02:09 47.47240 -111.30474 6304 ft 87 kts 118°
2026-04-15 02:09 47.46972 -111.29632 6375 ft 99 kts 112°
2026-04-15 02:09 47.46720 -111.28687 6371 ft 98 kts 115°
2026-04-15 02:10 47.46403 -111.27810 6353 ft 95 kts 122°
2026-04-15 02:10 47.46111 -111.26936 6350 ft 93 kts 115°
2026-04-15 02:10 47.45794 -111.26108 6326 ft 94 kts 128°
2026-04-15 02:10 47.45344 -111.25404 6333 ft 92 kts 134°
2026-04-15 02:11 47.44894 -111.24728 6313 ft 94 kts 140°
2026-04-15 02:11 47.44318 -111.24261 6313 ft 93 kts 156°
2026-04-15 02:11 47.43724 -111.23905 6355 ft 93 kts 159°
2026-04-15 02:11 47.43132 -111.23529 6402 ft 92 kts 157°
2026-04-15 02:12 47.42614 -111.22950 6421 ft 95 kts 127°
2026-04-15 02:12 47.42379 -111.22042 6460 ft 95 kts 102°
2026-04-15 02:12 47.42294 -111.21091 6468 ft 94 kts 94°
2026-04-15 02:12 47.42056 -111.20187 6404 ft 98 kts 135°
2026-04-15 02:13 47.41498 -111.19669 6423 ft 91 kts 156°
2026-04-15 02:13 47.40939 -111.19212 6399 ft 93 kts 137°
2026-04-15 02:13 47.40591 -111.18407 6416 ft 95 kts 113°
2026-04-15 02:13 47.40294 -111.17506 6431 ft 98 kts 119°
2026-04-15 02:14 47.39945 -111.16666 6488 ft 95 kts 121°
2026-04-15 02:14 47.39635 -111.15790 6479 ft 98 kts 131°
2026-04-15 02:14 47.39004 -111.15431 6444 ft 102 kts 187°
2026-04-15 02:14 47.38364 -111.15743 6538 ft 92 kts 200°
2026-04-15 02:15 47.37711 -111.15974 6484 ft 98 kts 193°
2026-04-15 02:15 47.37056 -111.16200 6470 ft 97 kts 199°
2026-04-15 02:15 47.36427 -111.16592 6439 ft 96 kts 206°
2026-04-15 02:15 47.35834 -111.17059 6384 ft 98 kts 215°
2026-04-15 02:16 47.35316 -111.17706 6364 ft 95 kts 224°
2026-04-15 02:16 47.34873 -111.18425 6331 ft 96 kts 225°
2026-04-15 02:16 47.34407 -111.19132 6346 ft 95 kts 227°
2026-04-15 02:16 47.33970 -111.19864 6351 ft 95 kts 225°
2026-04-15 02:17 47.33471 -111.20527 6362 ft 95 kts 225°
2026-04-15 02:17 47.32980 -111.21173 6373 ft 95 kts 219°
2026-04-15 02:17 47.32466 -111.21802 6388 ft 95 kts 221°
2026-04-15 02:17 47.31959 -111.22422 6399 ft 95 kts 219°
2026-04-15 02:18 47.31448 -111.23058 6413 ft 95 kts 220°
2026-04-15 02:18 47.30986 -111.23755 6420 ft 96 kts 230°
2026-04-15 02:18 47.30570 -111.24526 6436 ft 95 kts 233°
2026-04-15 02:18 47.30161 -111.25288 6448 ft 95 kts 230°
2026-04-15 02:19 47.29738 -111.26048 6454 ft 95 kts 231°
2026-04-15 02:19 47.29329 -111.26824 6459 ft 95 kts 233°
2026-04-15 02:19 47.29009 -111.27675 6458 ft 95 kts 243°
2026-04-15 02:19 47.28711 -111.28554 6456 ft 95 kts 243°
2026-04-15 02:20 47.28398 -111.29411 6425 ft 96 kts 240°
2026-04-15 02:20 47.28073 -111.30284 6420 ft 95 kts 241°
2026-04-15 02:20 47.27782 -111.31163 6401 ft 96 kts 250°
2026-04-15 02:20 47.27563 -111.32085 6402 ft 95 kts 252°
2026-04-15 02:21 47.27359 -111.33012 6387 ft 96 kts 252°
2026-04-15 02:21 47.27146 -111.33938 6383 ft 95 kts 252°
2026-04-15 02:21 47.26931 -111.34872 6373 ft 96 kts 252°
2026-04-15 02:21 47.26784 -111.35830 6381 ft 95 kts 262°
2026-04-15 02:22 47.26709 -111.36801 6372 ft 96 kts 264°
2026-04-15 02:22 47.26645 -111.37767 6378 ft 95 kts 264°
2026-04-15 02:22 47.26562 -111.38747 6373 ft 95 kts 261°
2026-04-15 02:23 47.26402 -111.40677 6372 ft 95 kts 265°
2026-04-15 02:23 47.26368 -111.41664 6369 ft 96 kts 273°
2026-04-15 02:23 47.26466 -111.42628 6372 ft 95 kts 279°
2026-04-15 02:23 47.26564 -111.43596 6369 ft 95 kts 279°
2026-04-15 02:24 47.26690 -111.44553 6373 ft 95 kts 281°
2026-04-15 02:24 47.26824 -111.45517 6367 ft 95 kts 282°
2026-04-15 02:24 47.26955 -111.46469 6372 ft 95 kts 283°
2026-04-15 02:24 47.27107 -111.47430 6368 ft 95 kts 282°
2026-04-15 02:25 47.27233 -111.48385 6371 ft 95 kts 281°
2026-04-15 02:25 47.27369 -111.49345 6368 ft 95 kts 282°
2026-04-15 02:25 47.27542 -111.50285 6366 ft 95 kts 290°
2026-04-15 02:25 47.27785 -111.51202 6370 ft 95 kts 292°
2026-04-15 02:26 47.28027 -111.52106 6367 ft 95 kts 290°
2026-04-15 02:26 47.28280 -111.53007 6368 ft 95 kts 294°
2026-04-15 02:26 47.28553 -111.53902 6367 ft 95 kts 295°
2026-04-15 02:26 47.28886 -111.54743 6364 ft 95 kts 303°
2026-04-15 02:27 47.29252 -111.55563 6366 ft 95 kts 303°
2026-04-15 02:27 47.29583 -111.56418 6362 ft 95 kts 300°
2026-04-15 02:27 47.30016 -111.57148 6348 ft 96 kts 323°
2026-04-15 02:27 47.30654 -111.57412 6338 ft 96 kts
2026-04-15 02:28 47.31313 -111.57298 6356 ft 94 kts
2026-04-15 02:28 47.31962 -111.57184 6307 ft 95 kts
2026-04-15 02:28 47.32619 -111.57047 6250 ft 95 kts 14°
2026-04-15 02:28 47.33248 -111.56723 6151 ft 96 kts 22°
2026-04-15 02:29 47.33856 -111.56319 6048 ft 97 kts 26°
2026-04-15 02:29 47.34449 -111.55853 5964 ft 96 kts 30°
2026-04-15 02:29 47.35035 -111.55358 5851 ft 96 kts 31°
2026-04-15 02:29 47.35596 -111.54819 5697 ft 98 kts 37°
2026-04-15 02:30 47.36144 -111.54218 5579 ft 96 kts 37°
2026-04-15 02:30 47.36670 -111.53612 5410 ft 98 kts 39°
2026-04-15 02:30 47.37190 -111.52968 5278 ft 96 kts 43°
2026-04-15 02:30 47.37640 -111.52305 5163 ft 86 kts 45°
2026-04-15 02:31 47.38076 -111.51714 5011 ft 85 kts 43°
2026-04-15 02:31 47.38509 -111.51123 4873 ft 84 kts 43°
2026-04-15 02:31 47.38935 -111.50539 4784 ft 82 kts 42°
2026-04-15 02:31 47.39370 -111.49985 4796 ft 83 kts 42°
2026-04-15 02:32 47.39789 -111.49378 4885 ft 82 kts 44°
2026-04-15 02:32 47.40212 -111.48810 4920 ft 82 kts 42°
2026-04-15 02:32 47.40626 -111.48218 4953 ft 83 kts 47°
2026-04-15 02:32 47.41024 -111.47619 4971 ft 81 kts 43°
2026-04-15 02:33 47.41439 -111.47018 4911 ft 84 kts 48°
2026-04-15 02:33 47.41815 -111.46365 4829 ft 84 kts 50°
2026-04-15 02:33 47.42186 -111.45718 4718 ft 83 kts 53°
2026-04-15 02:33 47.42553 -111.45034 4606 ft 82 kts 52°
2026-04-15 02:34 47.42918 -111.44374 4474 ft 84 kts 50°
2026-04-15 02:34 47.43301 -111.43745 4465 ft 81 kts 46°
2026-04-15 02:34 47.43729 -111.43191 4418 ft 83 kts 43°
2026-04-15 02:34 47.44139 -111.42590 4331 ft 81 kts 46°
2026-04-15 02:35 47.44524 -111.41974 4152 ft 82 kts 50°
2026-04-15 02:35 47.44897 -111.41361 4033 ft 78 kts 47°
2026-04-15 02:35 47.45292 -111.40798 3911 ft 80 kts 43°
2026-04-15 02:35 47.45686 -111.40210 3850 ft 74 kts 45°
2026-04-15 02:36 47.46009 -111.39737 3814 ft 64 kts 44°
2026-04-15 02:36 47.46337 -111.39257 3840 ft 69 kts 44°
2026-04-15 02:36 47.46690 -111.38747 3821 ft 67 kts 45°
2026-04-15 02:36 47.46997 -111.38292 3702 ft 56 kts 44°
2026-04-15 02:37 47.47215 -111.37972 3673 ft 34 kts 45°
2026-04-15 02:37 47.47364 -111.37747 3670 ft 29 kts 44°
2026-04-15 02:37 47.47500 -111.37546 3669 ft 26 kts 46°
2026-04-15 02:37 47.47521 -111.37364 3671 ft 18 kts 140°
2026-04-15 02:38 47.47507 -111.37269 3672 ft 10 kts 60°
2026-04-15 02:38 47.47587 -111.37149 3670 ft 24 kts 45°
2026-04-15 02:38 47.47704 -111.36974 3671 ft 19 kts 45°
2026-04-15 02:38 47.47781 -111.36858 3671 ft 12 kts 45°
2026-04-15 02:39 47.47845 -111.36765 3672 ft 13 kts 45°
2026-04-15 02:39 47.47906 -111.36671 3670 ft 5 kts 68°
2026-04-15 02:39 47.47897 -111.36557 3671 ft 16 kts 57°
2026-04-15 02:39 47.47918 -111.36571 3670 ft 0 kts 266°